Location: Asheville, NC
(35.6000°N, 82.5500°W)
Time: 14:27:56
(UTC-04:00)

CUTE 1.7 + AOD 2 - Pass Details

Date: 08 January 2018
Orbit: 595 x 612 km, 97.5° (Epoch: 24 April)

Event Time Altitude Azimuth Distance (km) Brightness Sun altitude
Rises 17:56:41 0° 138° (SE) 2,862 ? -5.0°
Reaches altitude 10° 17:59:09 10° 125° (SE) 1,962 ? -5.5°
Maximum altitude 18:02:37 25° 71° (ENE) 1,251 ? -6.1°
Drops below altitude 10° 18:06:06 10° 16° (NNE) 1,970 ? -6.8°
Sets 18:08:35 0° 3° (N) 2,876 ? -7.2°
